Flag for Norway Weather past 2 weeks in Vennesla, Norway

Now
54 °F

Mostly cloudy.


Feels Like: 49 °F
Forecast: 55 / 57 °F
Wind: 16 mph from Southwest

Location: Kristiansand / Kjevik

Current Time: Oct 26, 2014 at 5:27:41 AM

Latest Report: Oct 26, 2014 at 4:50 AM


Visibility: N/A

Pressure: 29.80 "Hg

Humidity: 82%

Dew point: 48 °F

Location of VenneslaLocation

Historic Weather in Vennesla — Graph

°F

Vennesla temperature yesterday

Maximum temperature yesterday: 54 °F (at 12:20 PM)
Minimum temperature yesterday: 45 °F (at 7:20 AM)
Average temperature yesterday: 51 °F

Past Weeks' High & Low Weather Summary

 TemperatureHumidityPressure
High59 °F (Oct 13, 4:20 PM)100% (Oct 11, 5:20 AM)30.04 "Hg (Oct 11, 5:20 AM)
Low37 °F (Oct 13, 5:20 AM)48% (Oct 13, 4:20 PM)29.27 "Hg (Oct 21, 5:50 PM)
Average49 °F89%29.78 "Hg
* Reported Oct 11 5:20 AM — Oct 26 4:20 AM, Vennesla, Weather by CustomWeather, © 2014

Note: Actual official high and low records may vary slightly from our data, if they occured in-between our weather recording intervals... More about our weather records

Advertising

Vennesla weather history for previous 24 hours

 ConditionsComfort  
Time TempWeatherWind HumidityBarometerVisibility
4:20 AM
Oct 26
54 °FMostly cloudy.16 mph82%29.80 "HgN/A
3:50 AM54 °FMostly cloudy.18 mph82%29.80 "HgN/A
3:20 AM54 °FMostly cloudy.20 mph82%29.83 "HgN/A
2:50 AM54 °FMostly cloudy.18 mph82%29.83 "HgN/A
2:20 AM54 °FMostly cloudy.21 mph82%29.83 "HgN/A
2:50 AM54 °FMostly cloudy.17 mph82%29.83 "HgN/A
2:20 AM54 °FOvercast.17 mph82%29.83 "HgN/A
1:50 AM54 °FOvercast.17 mph82%29.83 "HgN/A
1:20 AM54 °FMostly cloudy.16 mph88%29.83 "HgN/A
12:50 AM54 °FOvercast.17 mph88%29.83 "HgN/A
12:20 AM54 °FDrizzle. Overcast.20 mph82%29.83 "HgN/A
11:50 PM
Oct 25
54 °FMostly cloudy.18 mph82%29.83 "HgN/A
11:20 PM54 °FLight rain. Mostly cloudy.18 mph82%29.83 "HgN/A
10:50 PM54 °FPartly cloudy.20 mph82%29.83 "HgN/A
10:20 PM54 °FPartly cloudy.18 mph82%29.83 "HgN/A
9:50 PM54 °FPartly cloudy.18 mph82%29.83 "HgN/A
9:20 PM54 °FPartly cloudy.17 mph82%29.83 "HgN/A
8:50 PM54 °FSprinkles. Partly cloudy.16 mph82%29.83 "HgN/A
8:20 PM54 °FPartly cloudy.16 mph82%29.83 "HgN/A
7:50 PM54 °FPartly cloudy.14 mph82%29.86 "HgN/A
7:20 PM54 °FPartly cloudy.17 mph82%29.86 "HgN/A
6:50 PM54 °FBroken clouds.15 mph82%29.83 "HgN/A
6:20 PM54 °FSprinkles. Broken clouds.14 mph82%29.83 "HgN/A
5:50 PM52 °FRain showers. Broken clouds.10 mph88%29.83 "HgN/A
5:20 PM52 °FScattered showers. Broken clouds.13 mph82%29.83 "HgN/A
4:50 PM54 °FScattered clouds.14 mph77%29.86 "HgN/A
4:20 PM52 °FScattered showers. Scattered clouds.14 mph82%29.86 "HgN/A
3:50 PM54 °FScattered clouds.14 mph77%29.86 "HgN/A
3:20 PM54 °FScattered clouds.12 mph77%29.86 "HgN/A
2:50 PM54 °FPartly sunny.15 mph72%29.86 "HgN/A
2:20 PM54 °FBroken clouds.15 mph77%29.86 "HgN/A
1:50 PM54 °FScattered clouds.12 mph77%29.86 "HgN/A
1:20 PM54 °FScattered clouds.14 mph77%29.86 "HgN/A
12:50 PM54 °FScattered clouds.10 mph77%29.86 "HgN/A
12:20 PM54 °FScattered clouds.8 mph82%29.86 "HgN/A
11:50 AM52 °FScattered clouds.10 mph88%29.86 "HgN/A
11:20 AM52 °FScattered clouds.3 mph94%29.86 "HgN/A
10:50 AM50 °FScattered clouds.1 mph94%29.83 "HgN/A
10:20 AM48 °FFog.2 mph94%29.83 "HgN/A
9:50 AM46 °FFog.5 mph100%29.83 "HgN/A
9:20 AM45 °FFog.2 mph100%29.83 "HgN/A
8:50 AM46 °FFog.6 mph93%29.83 "HgN/A
8:20 AM45 °FPassing clouds.6 mph100%29.80 "HgN/A
7:50 AM45 °FPassing clouds.6 mph100%29.80 "HgN/A
7:20 AM45 °FPassing clouds.3 mph100%29.80 "HgN/A
6:50 AM46 °FPassing clouds.1 mph100%29.80 "HgN/A
6:20 AM46 °FPassing clouds.2 mph93%29.80 "Hg0 mi
5:50 AM46 °FFog.2 mph93%29.80 "Hg0 mi
5:20 AM46 °FPassing clouds.No wind100%29.80 "Hg1 mi
Weather by CustomWeather, © 2014

See weather overviewHow to use our weather pages